Rorichmoor — V2BV7 — position and weather

sailwx.info

Track history (hours):
 
Tides and Currents Weather Stations Pressure Air Temp Water Temp Dewpoint Dewpoint Depression Visibility Wind Speed Wind Dir Waves Ship Positions

Rorichmoor

Last reported at 2014-Jul-19 04:33 UTC. Time now 2014-Jul-24 10:39 UTC.
Position N 37°51' W 009°28'.

Length 80 m; draft 4.4 m.

Type: Cargo ship. MMSI: 304938000.

Date/timePositionNaut miles runAvg speedWind from/ knotsBaromVisibWave heightAir tempDewpointWater temp
2014-Jul-19 04:33N 37°51' W 009°28'9 8.5
2014-Jul-19 03:33N 37°60' W 009°26'9 8.8
2014-Jul-19 02:31N 38°09' W 009°25'35 8.1
2014-Jul-18 22:11N 38°42' W 009°10'4 5.9
2014-Jul-18 21:31N 38°44' W 009°06'0 0.0
2014-Jul-18 20:31N 38°44' W 009°06'0 0.0
2014-Jul-18 19:31N 38°44' W 009°06'0 0.0
2014-Jul-18 18:31N 38°44' W 009°06'0 0.0
2014-Jul-18 17:31N 38°44' W 009°06'0 0.0
2014-Jul-18 16:28N 38°44' W 009°06'0 0.0
2014-Jul-18 15:31N 38°44' W 009°06'0 0.0
2014-Jul-18 14:28N 38°44' W 009°06'0 0.0
2014-Jul-18 13:22N 38°44' W 009°06'0 0.0
2014-Jul-18 12:31N 38°44' W 009°06'0 0.0
2014-Jul-18 11:31N 38°44' W 009°06'0 0.0
2014-Jul-18 10:31N 38°44' W 009°06'0 0.0
2014-Jul-18 09:31N 38°44' W 009°06'0 0.0
2014-Jul-18 08:31N 38°44' W 009°06'0 0.0
2014-Jul-18 07:31N 38°44' W 009°06'0 0.0
2014-Jul-18 06:31N 38°44' W 009°06'0 0.0
2014-Jul-18 05:31N 38°44' W 009°06'0 0.0
2014-Jul-18 04:31N 38°44' W 009°06'0 0.0
2014-Jul-18 03:31N 38°44' W 009°06'0 0.0
2014-Jul-18 02:31N 38°44' W 009°06'0 0.0
2014-Jul-18 01:31N 38°44' W 009°06'0 0.0
2014-Jul-18 00:31N 38°44' W 009°06'0 0.0
2014-Jul-17 23:31N 38°44' W 009°06'0 0.0
2014-Jul-17 22:31N 38°44' W 009°06'0 0.0
2014-Jul-17 21:31N 38°44' W 009°06'0 0.0
2014-Jul-17 20:31N 38°44' W 009°06'0 0.0
2014-Jul-17 19:31N 38°44' W 009°06'0 0.0
2014-Jul-17 18:31N 38°44' W 009°06'0 0.0
2014-Jul-17 17:28N 38°44' W 009°06'0 0.0
2014-Jul-17 16:31N 38°44' W 009°06'0 0.0
2014-Jul-17 15:31N 38°44' W 009°06'0 0.0
2014-Jul-17 14:31N 38°44' W 009°06'35 2.5
2014-Jul-17 00:31N 38°12' W 009°22'9 9.3
2014-Jul-16 23:33N 38°03' W 009°23'10 9.0
2014-Jul-16 22:28N 37°53' W 009°21'8 9.2
2014-Jul-16 21:33N 37°45' W 009°22'9 9.0
2014-Jul-16 20:33N 37°36' W 009°22'9 9.2
2014-Jul-16 19:32N 37°27' W 009°22'10 9.6
2014-Jul-16 18:33N 37°17' W 009°21'9 9.4
2014-Jul-16 17:33N 37°08' W 009°20'9 9.2
2014-Jul-16 16:33N 36°59' W 009°20'10 8.7
2014-Jul-16 15:23N 36°49' W 009°16'  
Track history (hours):
 
Tides and Currents Weather Stations Pressure Air Temp Water Temp Dewpoint Dewpoint Depression Visibility Wind Speed Wind Dir Waves Ship Positions

Rorichmoor

Last reported at 2014-Jul-19 04:33 UTC. Time now 2014-Jul-24 10:39 UTC.
Position N 37°51' W 009°28'.

Length 80 m; draft 4.4 m.

Type: Cargo ship. MMSI: 304938000.

Date/timePositionNaut miles runAvg speedWind from/ knotsBaromVisibWave heightAir tempDewpointWater temp
2014-Jul-19 04:33N 37°51' W 009°28'9 8.5
2014-Jul-19 03:33N 37°60' W 009°26'9 8.8
2014-Jul-19 02:31N 38°09' W 009°25'35 8.1
2014-Jul-18 22:11N 38°42' W 009°10'4 5.9
2014-Jul-18 21:31N 38°44' W 009°06'0 0.0
2014-Jul-18 20:31N 38°44' W 009°06'0 0.0
2014-Jul-18 19:31N 38°44' W 009°06'0 0.0
2014-Jul-18 18:31N 38°44' W 009°06'0 0.0
2014-Jul-18 17:31N 38°44' W 009°06'0 0.0
2014-Jul-18 16:28N 38°44' W 009°06'0 0.0
2014-Jul-18 15:31N 38°44' W 009°06'0 0.0
2014-Jul-18 14:28N 38°44' W 009°06'0 0.0
2014-Jul-18 13:22N 38°44' W 009°06'0 0.0
2014-Jul-18 12:31N 38°44' W 009°06'0 0.0
2014-Jul-18 11:31N 38°44' W 009°06'0 0.0
2014-Jul-18 10:31N 38°44' W 009°06'0 0.0
2014-Jul-18 09:31N 38°44' W 009°06'0 0.0
2014-Jul-18 08:31N 38°44' W 009°06'0 0.0
2014-Jul-18 07:31N 38°44' W 009°06'0 0.0
2014-Jul-18 06:31N 38°44' W 009°06'0 0.0
2014-Jul-18 05:31N 38°44' W 009°06'0 0.0
2014-Jul-18 04:31N 38°44' W 009°06'0 0.0
2014-Jul-18 03:31N 38°44' W 009°06'0 0.0
2014-Jul-18 02:31N 38°44' W 009°06'0 0.0
2014-Jul-18 01:31N 38°44' W 009°06'0 0.0
2014-Jul-18 00:31N 38°44' W 009°06'0 0.0
2014-Jul-17 23:31N 38°44' W 009°06'0 0.0
2014-Jul-17 22:31N 38°44' W 009°06'0 0.0
2014-Jul-17 21:31N 38°44' W 009°06'0 0.0
2014-Jul-17 20:31N 38°44' W 009°06'0 0.0
2014-Jul-17 19:31N 38°44' W 009°06'0 0.0
2014-Jul-17 18:31N 38°44' W 009°06'0 0.0
2014-Jul-17 17:28N 38°44' W 009°06'0 0.0
2014-Jul-17 16:31N 38°44' W 009°06'0 0.0
2014-Jul-17 15:31N 38°44' W 009°06'0 0.0
2014-Jul-17 14:31N 38°44' W 009°06'35 2.5
2014-Jul-17 00:31N 38°12' W 009°22'9 9.3
2014-Jul-16 23:33N 38°03' W 009°23'10 9.0
2014-Jul-16 22:28N 37°53' W 009°21'8 9.2
2014-Jul-16 21:33N 37°45' W 009°22'9 9.0
2014-Jul-16 20:33N 37°36' W 009°22'9 9.2
2014-Jul-16 19:32N 37°27' W 009°22'10 9.6
2014-Jul-16 18:33N 37°17' W 009°21'9 9.4
2014-Jul-16 17:33N 37°08' W 009°20'9 9.2
2014-Jul-16 16:33N 36°59' W 009°20'10 8.7
2014-Jul-16 15:23N 36°49' W 009°16'  

Dump ship's entire track history